EXS9AR LGSK-EGNM

Flight info

Callsign EXS9AR
Flight time 3h 17m
Altitude 40000
Route IBIDI UL617 AMSIV DCT MAKED DCT LONTA UL608 DOLEV DCT RENKA DCT GASKA DCT MASEK DCT OTMEC DCT PAM DCT RAVLO Y70 BATLI DCT LBA
Aircraft B738/M-SDE2E3FGHIRWXY/LB1

Departure

Time 2026-05-04 17:26
Airport Skiathos Island National Airport (LGSK)

Arrival

Time 2026-05-04 20:43
Airport Leeds Bradford Airport (EGNM)
Time Latitude Longitude Altitude Speed Heading
2026-05-04 16:57 39.17909 23.50241 38 ft 0 kts 289°
2026-05-04 17:16 39.17892 23.50308 38 ft 3 kts 262°
2026-05-04 17:17 39.17900 23.50329 37 ft 3 kts 210°
2026-05-04 17:17 39.17916 23.50338 39 ft 0 kts 199°
2026-05-04 17:19 39.17910 23.50335 39 ft 3 kts 199°
2026-05-04 17:19 39.17797 23.50286 38 ft 6 kts 199°
2026-05-04 17:20 39.17738 23.50264 38 ft 4 kts 181°
2026-05-04 17:20 39.17695 23.50341 40 ft 3 kts 115°
2026-05-04 17:20 39.17678 23.50353 39 ft 3 kts 173°
2026-05-04 17:21 39.17599 23.50318 40 ft 12 kts 199°
2026-05-04 17:21 39.17388 23.50223 35 ft 15 kts 199°
2026-05-04 17:22 39.17241 23.50158 24 ft 13 kts 199°
2026-05-04 17:22 39.17185 23.50133 22 ft 12 kts 199°
2026-05-04 17:23 39.17022 23.50068 11 ft 7 kts 260°
2026-05-04 17:23 39.17029 23.50051 10 ft 2 kts 314°
2026-05-04 17:23 39.17048 23.50065 13 ft 2 kts 43°
2026-05-04 17:24 39.17057 23.50074 15 ft 2 kts 35°
2026-05-04 17:24 39.17070 23.50082 16 ft 0 kts 21°
2026-05-04 17:25 39.17568 23.50305 40 ft 125 kts 19°
2026-05-04 17:26 39.19817 23.51287 1990 ft 170 kts 15°
2026-05-04 17:26 39.20701 23.55978 4499 ft 242 kts 117°
2026-05-04 17:27 39.18846 23.59809 6735 ft 242 kts 116°
2026-05-04 17:27 39.17522 23.63711 8679 ft 252 kts 90°
2026-05-04 17:28 39.18509 23.68290 9780 ft 277 kts 50°
2026-05-04 17:29 39.23977 23.70015 11512 ft 313 kts 338°
2026-05-04 17:29 39.27976 23.63130 14309 ft 340 kts 300°
2026-05-04 17:30 39.31711 23.55277 16905 ft 346 kts 324°
2026-05-04 17:31 39.36091 23.52703 18585 ft 352 kts 342°
2026-05-04 17:31 39.43212 23.49492 20699 ft 369 kts 341°
2026-05-04 17:32 39.48053 23.47143 22069 ft 379 kts 340°
2026-05-04 17:33 39.55609 23.43447 24002 ft 394 kts 341°
2026-05-04 17:33 39.58183 23.42190 24592 ft 398 kts 341°
2026-05-04 17:34 39.66142 23.38304 26128 ft 412 kts 341°
2026-05-04 17:34 39.68830 23.36990 26685 ft 415 kts 341°
2026-05-04 17:35 39.77063 23.32972 28194 ft 427 kts 341°
2026-05-04 17:35 39.82672 23.30254 29136 ft 435 kts 341°
2026-05-04 17:35 39.85523 23.28869 29602 ft 438 kts 341°
2026-05-04 17:36 39.88386 23.27476 30058 ft 441 kts 341°
2026-05-04 17:36 39.91274 23.26055 30463 ft 444 kts 340°
2026-05-04 17:36 39.94116 23.24483 30939 ft 445 kts 337°
2026-05-04 17:36 39.96930 23.22805 31461 ft 444 kts 336°
2026-05-04 17:37 39.99724 23.21091 31933 ft 444 kts 336°
2026-05-04 17:37 40.02520 23.19365 32326 ft 445 kts 336°
2026-05-04 17:37 40.05332 23.17638 32595 ft 449 kts 336°
2026-05-04 17:37 40.08171 23.15906 32960 ft 450 kts 336°
2026-05-04 17:38 40.11003 23.14186 33385 ft 450 kts 336°
2026-05-04 17:38 40.13845 23.12467 33783 ft 450 kts 336°
2026-05-04 17:38 40.16694 23.10745 34117 ft 452 kts 336°
2026-05-04 17:38 40.19524 23.09036 34738 ft 441 kts 336°
2026-05-04 17:39 40.25027 23.05707 35582 ft 435 kts 335°
2026-05-04 17:39 40.27795 23.04031 35705 ft 440 kts 335°
2026-05-04 17:39 40.30582 23.02341 35851 ft 443 kts 335°
2026-05-04 17:40 40.33384 23.00641 36107 ft 443 kts 335°
2026-05-04 17:40 40.36160 22.98954 36455 ft 440 kts 335°
2026-05-04 17:40 40.38935 22.97266 36817 ft 438 kts 335°
2026-05-04 17:40 40.41688 22.95590 37115 ft 437 kts 335°
2026-05-04 17:41 40.44441 22.93913 37375 ft 436 kts 335°
2026-05-04 17:41 40.47194 22.92234 37661 ft 435 kts 335°
2026-05-04 17:41 40.49934 22.90561 37972 ft 434 kts 335°
2026-05-04 17:41 40.52675 22.88887 38282 ft 433 kts 335°
2026-05-04 17:42 40.55404 22.87218 38557 ft 432 kts 335°
2026-05-04 17:42 40.58123 22.85554 38819 ft 430 kts 335°
2026-05-04 17:42 40.60831 22.83894 39020 ft 430 kts 335°
2026-05-04 17:42 40.63552 22.82226 39157 ft 431 kts 335°
2026-05-04 17:43 40.66267 22.80560 39320 ft 431 kts 335°
2026-05-04 17:43 40.68992 22.78886 39503 ft 431 kts 335°
2026-05-04 17:43 40.71705 22.77218 39676 ft 431 kts 335°
2026-05-04 17:43 40.74429 22.75542 39831 ft 431 kts 335°
2026-05-04 17:44 40.77098 22.73898 39980 ft 432 kts 335°
2026-05-04 17:44 40.79865 22.72192 40058 ft 433 kts 335°
2026-05-04 17:44 40.85339 22.68813 40057 ft 433 kts 335°
2026-05-04 17:45 40.90751 22.65465 40056 ft 431 kts 335°
2026-05-04 17:45 40.96160 22.62113 40066 ft 429 kts 335°
2026-05-04 17:46 41.01572 22.58754 40062 ft 429 kts 335°
2026-05-04 17:46 41.06982 22.55390 40072 ft 430 kts 335°
2026-05-04 17:47 41.12378 22.51952 40066 ft 431 kts 331°
2026-05-04 17:47 41.17206 22.47259 40073 ft 432 kts 322°
2026-05-04 17:48 41.21867 22.42202 40068 ft 432 kts 322°
2026-05-04 17:48 41.26539 22.37158 40069 ft 433 kts 322°
2026-05-04 17:49 41.31225 22.32123 40088 ft 434 kts 322°
2026-05-04 17:49 41.35923 22.27079 40083 ft 435 kts 322°
2026-05-04 17:50 41.40629 22.22019 40075 ft 435 kts 322°
2026-05-04 17:50 41.45328 22.16955 40081 ft 435 kts 322°
2026-05-04 17:51 41.50034 22.11875 40071 ft 435 kts 322°
2026-05-04 17:51 41.54735 22.06788 40079 ft 435 kts 322°
2026-05-04 17:52 41.59428 22.01702 40076 ft 435 kts 322°
2026-05-04 17:52 41.64127 21.96598 40079 ft 435 kts 322°
2026-05-04 17:53 41.68812 21.91501 40080 ft 435 kts 322°
2026-05-04 17:53 41.73502 21.86387 40078 ft 435 kts 322°
2026-05-04 17:54 41.78165 21.81293 40080 ft 435 kts 322°
2026-05-04 17:54 41.82880 21.76132 40072 ft 435 kts 321°
2026-05-04 17:55 41.87534 21.71029 40079 ft 435 kts 321°
2026-05-04 17:55 41.92207 21.65894 40074 ft 435 kts 321°
2026-05-04 17:56 41.96889 21.60739 40072 ft 435 kts 321°
2026-05-04 17:56 42.01561 21.55585 40089 ft 435 kts 321°
2026-05-04 17:57 42.06229 21.50425 40091 ft 434 kts 321°
2026-05-04 17:57 42.10902 21.45250 40095 ft 434 kts 321°
2026-05-04 17:58 42.15554 21.40056 40100 ft 434 kts 319°
2026-05-04 17:58 42.19618 21.34023 40105 ft 436 kts 311°
2026-05-04 17:59 42.23507 21.27752 40101 ft 437 kts 311°
2026-05-04 18:00 42.29384 21.18331 40114 ft 437 kts 311°
2026-05-04 18:00 42.33314 21.12065 40108 ft 437 kts 311°
2026-05-04 18:01 42.37252 21.05781 40123 ft 437 kts 311°
2026-05-04 18:01 42.41185 20.99492 40125 ft 438 kts 311°
2026-05-04 18:02 42.47071 20.90052 40128 ft 438 kts 311°
2026-05-04 18:02 42.50998 20.83736 40125 ft 438 kts 311°
2026-05-04 18:03 42.54922 20.77413 40112 ft 438 kts 311°
2026-05-04 18:03 42.58835 20.71092 40113 ft 438 kts 311°
2026-05-04 18:04 42.62744 20.64765 40115 ft 438 kts 311°
2026-05-04 18:05 42.67950 20.56317 40108 ft 438 kts 311°
2026-05-04 18:05 42.71855 20.49965 40104 ft 438 kts 311°
2026-05-04 18:06 42.77691 20.40444 40108 ft 437 kts 311°
2026-05-04 18:06 42.81577 20.34091 40108 ft 436 kts 311°
2026-05-04 18:07 42.85902 20.28330 40119 ft 435 kts 323°
2026-05-04 18:07 42.90738 20.23373 40112 ft 436 kts 323°
2026-05-04 18:08 42.95596 20.18416 40109 ft 436 kts 323°
2026-05-04 18:08 43.00397 20.13460 40092 ft 436 kts 323°
2026-05-04 18:09 43.10031 20.03414 40102 ft 435 kts 323°
2026-05-04 18:10 43.14842 19.98377 40105 ft 435 kts 323°
2026-05-04 18:10 43.19654 19.93329 40096 ft 435 kts 323°
2026-05-04 18:11 43.24459 19.88278 40101 ft 436 kts 323°
2026-05-04 18:11 43.29264 19.83217 40101 ft 436 kts 323°
2026-05-04 18:12 43.34077 19.78138 40087 ft 436 kts 322°
2026-05-04 18:12 43.38881 19.73058 40091 ft 436 kts 322°
2026-05-04 18:13 43.43690 19.67962 40096 ft 436 kts 322°
2026-05-04 18:14 43.50890 19.60312 40090 ft 437 kts 322°
2026-05-04 18:14 43.55712 19.55176 40082 ft 438 kts 322°
2026-05-04 18:15 43.65337 19.44891 40080 ft 439 kts 322°
2026-05-04 18:16 43.70163 19.39718 40074 ft 440 kts 322°
2026-05-04 18:16 43.75003 19.34520 40067 ft 440 kts 322°
2026-05-04 18:17 43.82209 19.26760 40071 ft 440 kts 322°
2026-05-04 18:18 43.89439 19.18948 40078 ft 439 kts 322°
2026-05-04 18:18 43.94252 19.13736 40077 ft 439 kts 322°
2026-05-04 18:19 44.01467 19.05900 40070 ft 438 kts 322°
2026-05-04 18:19 44.06267 19.00672 40063 ft 438 kts 322°
2026-05-04 18:20 44.11057 18.95446 40066 ft 438 kts 322°
2026-05-04 18:20 44.15849 18.90206 40066 ft 437 kts 322°
2026-05-04 18:21 44.20627 18.84970 40067 ft 437 kts 321°
2026-05-04 18:21 44.25405 18.79722 40059 ft 437 kts 321°
2026-05-04 18:22 44.30184 18.74463 40058 ft 437 kts 321°
2026-05-04 18:22 44.34951 18.69206 40051 ft 437 kts 321°
2026-05-04 18:23 44.39720 18.63935 40049 ft 437 kts 321°
2026-05-04 18:23 44.44488 18.58653 40056 ft 437 kts 321°
2026-05-04 18:24 44.49259 18.53357 40049 ft 438 kts 321°
2026-05-04 18:24 44.54032 18.48048 40053 ft 438 kts 321°
2026-05-04 18:25 44.58810 18.42722 40048 ft 439 kts 321°
2026-05-04 18:25 44.63586 18.37386 40047 ft 439 kts 321°
2026-05-04 18:26 44.68358 18.32044 40049 ft 438 kts 321°
2026-05-04 18:26 44.73130 18.26690 40039 ft 439 kts 321°
2026-05-04 18:27 44.77902 18.21323 40043 ft 439 kts 321°
2026-05-04 18:27 44.82672 18.15948 40037 ft 440 kts 321°
2026-05-04 18:28 44.87450 18.10552 40036 ft 440 kts 321°
2026-05-04 18:28 44.92189 18.05187 40037 ft 440 kts 321°
2026-05-04 18:29 44.96988 17.99744 40036 ft 440 kts 321°
2026-05-04 18:29 45.01766 17.94311 40035 ft 440 kts 321°
2026-05-04 18:30 45.08926 17.86149 40029 ft 440 kts 321°
2026-05-04 18:31 45.13691 17.80701 40035 ft 441 kts 320°
2026-05-04 18:31 45.18425 17.75277 40040 ft 441 kts 321°
2026-05-04 18:32 45.23199 17.69796 40035 ft 442 kts 320°
2026-05-04 18:32 45.28001 17.64270 40038 ft 442 kts 320°
2026-05-04 18:33 45.32787 17.58750 40038 ft 442 kts 320°
2026-05-04 18:33 45.37530 17.53266 40034 ft 442 kts 320°
2026-05-04 18:34 45.42304 17.47736 40030 ft 442 kts 320°
2026-05-04 18:34 45.47066 17.42206 40035 ft 443 kts 320°
2026-05-04 18:35 45.51838 17.36653 40023 ft 442 kts 320°
2026-05-04 18:35 45.56610 17.31086 40031 ft 442 kts 320°
2026-05-04 18:36 45.61362 17.25531 40021 ft 442 kts 320°
2026-05-04 18:36 45.66119 17.19957 40029 ft 442 kts 320°
2026-05-04 18:37 45.70875 17.14371 40017 ft 443 kts 320°
2026-05-04 18:37 45.75633 17.08772 40014 ft 443 kts 320°
2026-05-04 18:38 45.80386 17.03164 40016 ft 443 kts 319°
2026-05-04 18:38 45.85108 16.97580 40013 ft 442 kts 319°
2026-05-04 18:39 45.89852 16.91958 40012 ft 442 kts 319°
2026-05-04 18:39 45.94602 16.86316 40010 ft 443 kts 319°
2026-05-04 18:40 45.99344 16.80669 40008 ft 443 kts 319°
2026-05-04 18:40 46.04085 16.75012 40005 ft 443 kts 319°
2026-05-04 18:41 46.08825 16.69342 40001 ft 443 kts 319°
2026-05-04 18:41 46.13535 16.63696 40004 ft 443 kts 319°
2026-05-04 18:42 46.18252 16.58028 40000 ft 443 kts 319°
2026-05-04 18:42 46.22988 16.52324 40001 ft 443 kts 319°
2026-05-04 18:43 46.27719 16.46609 39992 ft 443 kts 318°
2026-05-04 18:43 46.32277 16.40626 39997 ft 442 kts 315°
2026-05-04 18:44 46.36737 16.34482 39996 ft 442 kts 315°
2026-05-04 18:44 46.41195 16.28350 39995 ft 443 kts 315°
2026-05-04 18:45 46.45681 16.22219 39994 ft 443 kts 315°
2026-05-04 18:45 46.50157 16.16114 39987 ft 443 kts 315°
2026-05-04 18:46 46.54641 16.09988 39989 ft 443 kts 315°
2026-05-04 18:46 46.59122 16.03849 39986 ft 443 kts 315°
2026-05-04 18:47 46.63604 15.97695 39983 ft 443 kts 315°
2026-05-04 18:47 46.68063 15.91557 39987 ft 443 kts 315°
2026-05-04 18:48 46.72537 15.85383 39985 ft 443 kts 315°
2026-05-04 18:48 46.77003 15.79207 39984 ft 443 kts 315°
2026-05-04 18:49 46.81471 15.73011 39972 ft 443 kts 315°
2026-05-04 18:49 46.85934 15.66808 39970 ft 443 kts 315°
2026-05-04 18:50 46.90396 15.60592 39970 ft 443 kts 315°
2026-05-04 18:50 46.94826 15.54405 39965 ft 443 kts 315°
2026-05-04 18:51 46.99281 15.48169 39969 ft 443 kts 315°
2026-05-04 18:51 47.03735 15.41917 39967 ft 443 kts 315°
2026-05-04 18:52 47.08187 15.35655 39972 ft 443 kts 315°
2026-05-04 18:52 47.11917 15.30396 39985 ft 444 kts 315°
2026-05-04 18:53 47.16364 15.24111 39988 ft 444 kts 315°
2026-05-04 18:53 47.20810 15.17812 39995 ft 444 kts 314°
2026-05-04 18:54 47.25256 15.11500 39989 ft 444 kts 314°
2026-05-04 18:54 47.29694 15.05181 40002 ft 444 kts 314°
2026-05-04 18:55 47.34141 14.98836 39990 ft 445 kts 314°
2026-05-04 18:55 47.40797 14.89308 39988 ft 444 kts 314°
2026-05-04 18:56 47.45226 14.82947 39984 ft 444 kts 314°
2026-05-04 18:56 47.49654 14.76574 39985 ft 444 kts 314°
2026-05-04 18:57 47.54082 14.70185 39968 ft 445 kts 314°
2026-05-04 18:57 47.58508 14.63780 39962 ft 445 kts 314°
2026-05-04 18:58 47.62930 14.57367 39961 ft 445 kts 314°
2026-05-04 18:58 47.67351 14.50940 39933 ft 445 kts 314°
2026-05-04 18:59 47.71744 14.44536 39937 ft 445 kts 314°
2026-05-04 18:59 47.76148 14.38101 39914 ft 445 kts 314°
2026-05-04 19:00 47.80556 14.31645 39920 ft 444 kts 313°
2026-05-04 19:00 47.84951 14.25190 39908 ft 444 kts 313°
2026-05-04 19:01 47.89349 14.18714 39897 ft 445 kts 313°
2026-05-04 19:01 47.93733 14.12243 39899 ft 444 kts 313°
2026-05-04 19:02 47.98136 14.05728 39892 ft 445 kts 313°
2026-05-04 19:02 48.02530 13.99210 39893 ft 446 kts 313°
2026-05-04 19:03 48.06926 13.92672 39891 ft 446 kts 313°
2026-05-04 19:03 48.11322 13.86117 39886 ft 446 kts 313°
2026-05-04 19:04 48.15708 13.79560 39889 ft 446 kts 313°
2026-05-04 19:04 48.20088 13.72995 39894 ft 447 kts 313°
2026-05-04 19:05 48.24482 13.66392 39894 ft 448 kts 313°
2026-05-04 19:05 48.28880 13.59767 39897 ft 448 kts 313°
2026-05-04 19:06 48.33274 13.53130 39894 ft 448 kts 312°
2026-05-04 19:06 48.37672 13.46470 39894 ft 448 kts 312°
2026-05-04 19:07 48.42064 13.39802 39893 ft 449 kts 312°
2026-05-04 19:07 48.46448 13.33128 39895 ft 449 kts 312°
2026-05-04 19:08 48.50847 13.26415 39898 ft 450 kts 312°
2026-05-04 19:08 48.55240 13.19693 39903 ft 450 kts 312°
2026-05-04 19:09 48.59633 13.12951 39901 ft 450 kts 312°
2026-05-04 19:09 48.63989 13.06252 39906 ft 450 kts 311°
2026-05-04 19:10 48.68395 12.99455 39907 ft 450 kts 311°
2026-05-04 19:10 48.72747 12.92726 39907 ft 450 kts 311°
2026-05-04 19:11 48.77117 12.85950 39908 ft 449 kts 311°
2026-05-04 19:11 48.81480 12.79168 39922 ft 449 kts 311°
2026-05-04 19:12 48.88018 12.68969 39922 ft 449 kts 311°
2026-05-04 19:13 48.92373 12.62153 39919 ft 449 kts 311°
2026-05-04 19:13 48.96752 12.55281 39923 ft 449 kts 311°
2026-05-04 19:14 49.01070 12.48487 39921 ft 449 kts 311°
2026-05-04 19:14 49.05414 12.41635 39940 ft 449 kts 311°
2026-05-04 19:15 49.09775 12.34736 39927 ft 450 kts 311°
2026-05-04 19:15 49.14085 12.27900 39935 ft 450 kts 311°
2026-05-04 19:16 49.18419 12.21008 39926 ft 450 kts 310°
2026-05-04 19:16 49.22748 12.14105 39929 ft 449 kts 310°
2026-05-04 19:17 49.27071 12.07192 39933 ft 450 kts 310°
2026-05-04 19:17 49.31400 12.00251 39937 ft 450 kts 310°
2026-05-04 19:18 49.35723 11.93301 39943 ft 451 kts 310°
2026-05-04 19:18 49.40044 11.86334 39949 ft 451 kts 310°
2026-05-04 19:19 49.44368 11.79345 39954 ft 451 kts 310°
2026-05-04 19:19 49.48682 11.72353 39960 ft 451 kts 310°
2026-05-04 19:20 49.52989 11.65352 39969 ft 451 kts 310°
2026-05-04 19:20 49.57300 11.58326 39959 ft 451 kts 310°
2026-05-04 19:21 49.61604 11.51292 39958 ft 451 kts 310°
2026-05-04 19:21 49.65905 11.44243 39959 ft 451 kts 310°
2026-05-04 19:22 49.70203 11.37180 39942 ft 451 kts 309°
2026-05-04 19:22 49.74497 11.30104 39947 ft 451 kts 309°
2026-05-04 19:23 49.78791 11.23006 39939 ft 452 kts 309°
2026-05-04 19:23 49.83075 11.15908 39952 ft 452 kts 309°
2026-05-04 19:24 49.87369 11.08773 39952 ft 452 kts 309°
2026-05-04 19:24 49.91650 11.01638 39967 ft 452 kts 309°
2026-05-04 19:25 49.95928 10.94489 39951 ft 452 kts 309°
2026-05-04 19:25 50.00208 10.87317 39955 ft 452 kts 309°
2026-05-04 19:26 50.04506 10.80093 39955 ft 452 kts 309°
2026-05-04 19:26 50.08734 10.72969 39958 ft 451 kts 309°
2026-05-04 19:27 50.12977 10.65798 39963 ft 451 kts 309°
2026-05-04 19:27 50.17200 10.58639 40001 ft 451 kts 309°
2026-05-04 19:28 50.21452 10.51413 39973 ft 452 kts 308°
2026-05-04 19:28 50.25704 10.44164 39972 ft 453 kts 308°
2026-05-04 19:29 50.29953 10.36900 39969 ft 453 kts 308°
2026-05-04 19:29 50.34210 10.29606 39972 ft 453 kts 308°
2026-05-04 19:30 50.38407 10.22266 39976 ft 453 kts 307°
2026-05-04 19:30 50.42573 10.14773 39976 ft 454 kts 307°
2026-05-04 19:31 50.46716 10.07301 39984 ft 454 kts 307°
2026-05-04 19:31 50.50380 9.99313 39980 ft 449 kts 298°
2026-05-04 19:32 50.53645 9.90958 39977 ft 449 kts 297°
2026-05-04 19:32 50.56359 9.83980 39976 ft 449 kts 298°
2026-05-04 19:33 50.60188 9.74273 39990 ft 450 kts 298°
2026-05-04 19:33 50.62972 9.67262 39983 ft 451 kts 298°
2026-05-04 19:34 50.66297 9.58889 39986 ft 451 kts 298°
2026-05-04 19:34 50.69620 9.50493 39976 ft 452 kts 298°
2026-05-04 19:35 50.72940 9.42076 39978 ft 451 kts 298°
2026-05-04 19:35 50.76245 9.33666 39982 ft 452 kts 298°
2026-05-04 19:36 50.79556 9.25211 39983 ft 453 kts 298°
2026-05-04 19:36 50.82860 9.16749 39988 ft 453 kts 298°
2026-05-04 19:37 50.86164 9.08259 39980 ft 453 kts 298°
2026-05-04 19:37 50.89437 8.99821 39986 ft 453 kts 298°
2026-05-04 19:38 50.92724 8.91318 39977 ft 453 kts 297°
2026-05-04 19:38 50.96008 8.82797 39984 ft 453 kts 297°
2026-05-04 19:39 50.99285 8.74264 39983 ft 452 kts 297°
2026-05-04 19:39 51.02549 8.65736 39993 ft 452 kts 297°
2026-05-04 19:40 51.05807 8.57197 39985 ft 452 kts 297°
2026-05-04 19:40 51.09065 8.48628 39994 ft 452 kts 297°
2026-05-04 19:41 51.12318 8.40044 39982 ft 453 kts 297°
2026-05-04 19:41 51.15567 8.31443 39996 ft 453 kts 297°
2026-05-04 19:42 51.18804 8.22843 39988 ft 453 kts 297°
2026-05-04 19:42 51.22037 8.14227 39990 ft 453 kts 297°
2026-05-04 19:43 51.25260 8.05608 39995 ft 454 kts 297°
2026-05-04 19:43 51.28489 7.96945 39987 ft 455 kts 297°
2026-05-04 19:44 51.31718 7.88251 40001 ft 455 kts 297°
2026-05-04 19:44 51.34933 7.79564 39976 ft 454 kts 297°
2026-05-04 19:45 51.38150 7.70846 39968 ft 454 kts 297°
2026-05-04 19:45 51.41352 7.62136 39977 ft 454 kts 297°
2026-05-04 19:46 51.44552 7.53400 39969 ft 455 kts 297°
2026-05-04 19:46 51.47750 7.44643 39984 ft 455 kts 297°
2026-05-04 19:47 51.50936 7.35886 39978 ft 455 kts 297°
2026-05-04 19:47 51.54115 7.27119 39968 ft 455 kts 297°
2026-05-04 19:48 51.57291 7.18331 39980 ft 455 kts 297°
2026-05-04 19:48 51.60464 7.09521 39975 ft 455 kts 297°
2026-05-04 19:49 51.63628 7.00704 39962 ft 455 kts 297°
2026-05-04 19:49 51.66781 6.91886 39961 ft 454 kts 297°
2026-05-04 19:50 51.69932 6.83046 39964 ft 454 kts 297°
2026-05-04 19:50 51.73069 6.74210 39970 ft 454 kts 297°
2026-05-04 19:51 51.76204 6.65351 39970 ft 455 kts 296°
2026-05-04 19:51 51.79336 6.56471 39960 ft 455 kts 296°
2026-05-04 19:52 51.82460 6.47579 39957 ft 455 kts 296°
2026-05-04 19:52 51.85575 6.38685 39972 ft 455 kts 296°
2026-05-04 19:53 51.88688 6.29762 39977 ft 455 kts 296°
2026-05-04 19:53 51.91795 6.20825 39974 ft 455 kts 296°
2026-05-04 19:54 51.94892 6.11885 39962 ft 455 kts 296°
2026-05-04 19:54 51.97983 6.02931 39965 ft 455 kts 296°
2026-05-04 19:55 52.01066 5.93969 39970 ft 455 kts 296°
2026-05-04 19:55 52.04148 5.84977 39967 ft 456 kts 296°
2026-05-04 19:56 52.07225 5.75966 39965 ft 456 kts 296°
2026-05-04 19:56 52.10294 5.66948 39969 ft 457 kts 296°
2026-05-04 19:57 52.13367 5.57884 39985 ft 457 kts 296°
2026-05-04 19:57 52.16408 5.48880 40002 ft 457 kts 296°
2026-05-04 19:58 52.19462 5.39808 40000 ft 457 kts 296°
2026-05-04 19:58 52.22524 5.30679 39991 ft 456 kts 296°
2026-05-04 19:59 52.25543 5.21642 39993 ft 456 kts 296°
2026-05-04 19:59 52.28571 5.12548 39996 ft 455 kts 296°
2026-05-04 20:00 52.31584 5.03462 39994 ft 455 kts 296°
2026-05-04 20:00 52.34593 4.94358 40003 ft 455 kts 296°
2026-05-04 20:01 52.37597 4.85234 40000 ft 455 kts 296°
2026-05-04 20:01 52.40598 4.76084 39993 ft 456 kts 296°
2026-05-04 20:02 52.43585 4.66944 40013 ft 456 kts 296°
2026-05-04 20:02 52.46569 4.57780 40011 ft 455 kts 296°
2026-05-04 20:03 52.49545 4.48609 40013 ft 455 kts 296°
2026-05-04 20:03 52.52504 4.39453 40013 ft 455 kts 295°
2026-05-04 20:04 52.55458 4.30275 40019 ft 454 kts 295°
2026-05-04 20:04 52.58406 4.21087 40019 ft 454 kts 295°
2026-05-04 20:05 52.61349 4.11876 40027 ft 454 kts 295°
2026-05-04 20:05 52.64280 4.02671 40027 ft 454 kts 295°
2026-05-04 20:06 52.67207 3.93441 40034 ft 454 kts 295°
2026-05-04 20:06 52.70125 3.84205 40033 ft 454 kts 295°
2026-05-04 20:07 52.73035 3.74959 40041 ft 454 kts 295°
2026-05-04 20:07 52.75938 3.65704 40038 ft 454 kts 295°
2026-05-04 20:08 52.78835 3.56429 40035 ft 454 kts 295°
2026-05-04 20:08 52.81725 3.47138 40046 ft 455 kts 295°
2026-05-04 20:09 52.84611 3.37827 40038 ft 455 kts 295°
2026-05-04 20:09 52.87493 3.28495 40039 ft 456 kts 295°
2026-05-04 20:10 52.90372 3.19139 40041 ft 456 kts 295°
2026-05-04 20:10 52.92539 3.09430 40046 ft 452 kts 281°
2026-05-04 20:11 52.93834 2.99238 40058 ft 453 kts 280°
2026-05-04 20:11 52.95115 2.89007 40058 ft 453 kts 280°
2026-05-04 20:12 52.96426 2.78785 40059 ft 454 kts 281°
2026-05-04 20:12 52.97747 2.68570 40056 ft 454 kts 280°
2026-05-04 20:13 52.99065 2.58322 40052 ft 454 kts 281°
2026-05-04 20:13 53.00360 2.48167 40053 ft 453 kts 281°
2026-05-04 20:14 53.01656 2.37920 40057 ft 453 kts 281°
2026-05-04 20:14 53.02943 2.27661 40054 ft 453 kts 281°
2026-05-04 20:15 53.04220 2.17421 40054 ft 453 kts 281°
2026-05-04 20:15 53.04857 2.12288 39829 ft 453 kts 280°
2026-05-04 20:15 53.05488 2.07179 39597 ft 449 kts 280°
2026-05-04 20:15 53.06111 2.02127 39373 ft 445 kts 280°
2026-05-04 20:16 53.06729 1.97100 39152 ft 444 kts 280°
2026-05-04 20:16 53.07344 1.92075 38928 ft 443 kts 280°
2026-05-04 20:16 53.07955 1.87067 38702 ft 441 kts 280°
2026-05-04 20:16 53.08561 1.82073 38427 ft 440 kts 280°
2026-05-04 20:17 53.09165 1.77089 38146 ft 439 kts 280°
2026-05-04 20:17 53.09761 1.72152 37870 ft 437 kts 280°
2026-05-04 20:17 53.10154 1.68886 37690 ft 435 kts 280°
2026-05-04 20:17 53.10746 1.63948 37413 ft 433 kts 280°
2026-05-04 20:18 53.11332 1.59043 37153 ft 430 kts 280°
2026-05-04 20:18 53.11911 1.54178 36889 ft 428 kts 280°
2026-05-04 20:18 53.12485 1.49341 36627 ft 425 kts 280°
2026-05-04 20:18 53.13053 1.44530 36366 ft 423 kts 280°
2026-05-04 20:19 53.13616 1.39745 36117 ft 420 kts 280°
2026-05-04 20:19 53.14176 1.34974 35859 ft 418 kts 280°
2026-05-04 20:19 53.14729 1.30241 35609 ft 416 kts 280°
2026-05-04 20:19 53.15279 1.25514 35365 ft 414 kts 280°
2026-05-04 20:20 53.15824 1.20819 35116 ft 412 kts 280°
2026-05-04 20:20 53.16363 1.16148 34867 ft 410 kts 280°
2026-05-04 20:20 53.16897 1.11518 34562 ft 405 kts 280°
2026-05-04 20:20 53.17423 1.06931 34173 ft 401 kts 280°
2026-05-04 20:21 53.17944 1.02380 33715 ft 398 kts 280°
2026-05-04 20:21 53.18458 0.97863 33256 ft 395 kts 280°
2026-05-04 20:21 53.19468 0.88954 32415 ft 388 kts 280°
2026-05-04 20:22 53.19966 0.84540 32007 ft 385 kts 280°
2026-05-04 20:22 53.20456 0.80178 31616 ft 382 kts 280°
2026-05-04 20:22 53.20941 0.75840 31214 ft 379 kts 280°
2026-05-04 20:22 53.21418 0.71568 30833 ft 377 kts 280°
2026-05-04 20:23 53.21895 0.67287 30441 ft 374 kts 279°
2026-05-04 20:23 53.22367 0.63036 30055 ft 372 kts 279°
2026-05-04 20:23 53.22833 0.58816 29595 ft 368 kts 279°
2026-05-04 20:23 53.23292 0.54650 29203 ft 364 kts 279°
2026-05-04 20:24 53.23747 0.50514 28804 ft 359 kts 279°
2026-05-04 20:24 53.24194 0.46426 28375 ft 357 kts 279°
2026-05-04 20:24 53.24637 0.42367 27992 ft 353 kts 279°
2026-05-04 20:24 53.25073 0.38344 27584 ft 351 kts 279°
2026-05-04 20:25 53.25498 0.34368 27195 ft 349 kts 280°
2026-05-04 20:25 53.25924 0.30389 27076 ft 348 kts 280°
2026-05-04 20:25 53.26348 0.26415 27066 ft 346 kts 280°
2026-05-04 20:25 53.26759 0.22559 26923 ft 340 kts 280°
2026-05-04 20:26 53.27176 0.18624 26267 ft 347 kts 280°
2026-05-04 20:26 53.27602 0.14614 25625 ft 353 kts 279°
2026-05-04 20:26 53.28027 0.10577 25205 ft 352 kts 279°
2026-05-04 20:26 53.28447 0.06579 24872 ft 347 kts 279°
2026-05-04 20:27 53.29000 0.02663 24459 ft 346 kts 288°
2026-05-04 20:27 53.29951 -0.01021 24074 ft 345 kts 295°
2026-05-04 20:27 53.31007 -0.04588 23636 ft 345 kts 296°
2026-05-04 20:27 53.32076 -0.08154 23172 ft 343 kts 296°
2026-05-04 20:28 53.33136 -0.11709 22782 ft 340 kts 296°
2026-05-04 20:28 53.34179 -0.15255 22404 ft 336 kts 295°
2026-05-04 20:28 53.35134 -0.18799 22005 ft 334 kts 292°
2026-05-04 20:28 53.36045 -0.22356 21609 ft 331 kts 292°
2026-05-04 20:29 53.36941 -0.25903 21226 ft 329 kts 292°
2026-05-04 20:29 53.37826 -0.29405 20856 ft 326 kts 292°
2026-05-04 20:29 53.38713 -0.32900 20482 ft 323 kts 292°
2026-05-04 20:29 53.39584 -0.36320 20018 ft 318 kts 292°
2026-05-04 20:30 53.40449 -0.39710 19451 ft 316 kts 291°
2026-05-04 20:30 53.41301 -0.43047 19189 ft 305 kts 291°
2026-05-04 20:30 53.42120 -0.46250 19058 ft 296 kts 291°
2026-05-04 20:30 53.42927 -0.49416 18869 ft 294 kts 291°
2026-05-04 20:31 53.43742 -0.52614 18279 ft 300 kts 291°
2026-05-04 20:31 53.44567 -0.55859 17529 ft 305 kts 291°
2026-05-04 20:31 53.45398 -0.59130 16890 ft 305 kts 291°
2026-05-04 20:31 53.46222 -0.62376 16359 ft 301 kts 291°
2026-05-04 20:32 53.47039 -0.65596 15868 ft 297 kts 291°
2026-05-04 20:32 53.47840 -0.68757 15454 ft 291 kts 291°
2026-05-04 20:32 53.48623 -0.71853 15099 ft 284 kts 291°
2026-05-04 20:32 53.49387 -0.74875 14750 ft 278 kts 291°
2026-05-04 20:33 53.50132 -0.77829 14417 ft 273 kts 291°
2026-05-04 20:33 53.50870 -0.80761 14088 ft 273 kts 291°
2026-05-04 20:33 53.51608 -0.83698 13773 ft 275 kts 291°
2026-05-04 20:33 53.52364 -0.86712 13409 ft 284 kts 291°
2026-05-04 20:34 53.53139 -0.89800 13045 ft 290 kts 292°
2026-05-04 20:34 53.53918 -0.92911 12673 ft 288 kts 292°
2026-05-04 20:34 53.54693 -0.96009 12307 ft 286 kts 292°
2026-05-04 20:34 53.55478 -0.99051 11957 ft 284 kts 296°
2026-05-04 20:35 53.56453 -1.01947 11576 ft 283 kts 300°
2026-05-04 20:35 53.57465 -1.04775 11193 ft 282 kts 300°
2026-05-04 20:35 53.58475 -1.07580 10818 ft 278 kts 300°
2026-05-04 20:35 53.59467 -1.10334 10331 ft 273 kts 300°
2026-05-04 20:36 53.60443 -1.13048 9842 ft 269 kts 300°
2026-05-04 20:36 53.61406 -1.15738 9306 ft 267 kts 300°
2026-05-04 20:36 53.62358 -1.18415 8783 ft 266 kts 300°
2026-05-04 20:36 53.63300 -1.21081 8268 ft 265 kts 300°
2026-05-04 20:37 53.64237 -1.23755 7758 ft 263 kts 300°
2026-05-04 20:37 53.65160 -1.26408 7261 ft 263 kts 300°
2026-05-04 20:37 53.66075 -1.29063 6766 ft 262 kts 300°
2026-05-04 20:37 53.66986 -1.31726 6252 ft 261 kts 300°
2026-05-04 20:38 53.67880 -1.34360 5754 ft 260 kts 300°
2026-05-04 20:38 53.68774 -1.37007 5243 ft 259 kts 300°
2026-05-04 20:38 53.69685 -1.39611 4810 ft 255 kts 306°
2026-05-04 20:38 53.70848 -1.41815 4416 ft 247 kts 317°
2026-05-04 20:39 53.72099 -1.43733 4127 ft 237 kts 319°
2026-05-04 20:39 53.73287 -1.45531 3899 ft 221 kts 318°
2026-05-04 20:39 53.74367 -1.47190 3756 ft 199 kts 317°
2026-05-04 20:39 53.75352 -1.48712 3552 ft 186 kts 317°
2026-05-04 20:40 53.76277 -1.50143 3331 ft 176 kts 317°
2026-05-04 20:40 53.77157 -1.51502 3086 ft 166 kts 317°
2026-05-04 20:40 53.77985 -1.52781 2870 ft 160 kts 316°
2026-05-04 20:40 53.78811 -1.54058 2683 ft 159 kts 316°
2026-05-04 20:41 53.79622 -1.55310 2447 ft 155 kts 316°
2026-05-04 20:41 53.80379 -1.56477 2228 ft 139 kts 316°
2026-05-04 20:41 53.81069 -1.57542 2039 ft 126 kts 317°
2026-05-04 20:41 53.81697 -1.58510 1841 ft 121 kts 316°
2026-05-04 20:42 53.82323 -1.59492 1683 ft 125 kts 317°
2026-05-04 20:42 53.82993 -1.60495 1522 ft 130 kts 317°
2026-05-04 20:42 53.83678 -1.61534 1357 ft 134 kts 316°
2026-05-04 20:42 53.84362 -1.62592 1159 ft 132 kts 314°
2026-05-04 20:43 53.85017 -1.63636 958 ft 128 kts 314°
2026-05-04 20:43 53.85654 -1.64633 784 ft 123 kts 315°
2026-05-04 20:43 53.86284 -1.65581 680 ft 116 kts 314°
2026-05-04 20:43 53.86638 -1.66136 665 ft 31 kts 318°
2026-05-04 20:44 53.86783 -1.66351 664 ft 25 kts 317°
2026-05-04 20:44 53.86889 -1.66516 670 ft 18 kts 317°
2026-05-04 20:44 53.86952 -1.66578 671 ft 8 kts
2026-05-04 20:44 53.86989 -1.66516 671 ft 7 kts 62°
2026-05-04 20:45 53.86990 -1.66427 672 ft 9 kts 110°
2026-05-04 20:45 53.86955 -1.66315 668 ft 13 kts 123°
2026-05-04 20:45 53.86883 -1.66195 666 ft 15 kts 137°
2026-05-04 20:45 53.86818 -1.66086 665 ft 8 kts 122°
2026-05-04 20:46 53.86814 -1.65995 665 ft 9 kts 90°
2026-05-04 20:46 53.86813 -1.65881 664 ft 10 kts 91°
2026-05-04 20:46 53.86813 -1.65767 662 ft 10 kts 84°
2026-05-04 20:46 53.86816 -1.65673 663 ft 5 kts 90°
2026-05-04 20:47 53.86823 -1.65626 663 ft 4 kts 47°
2026-05-04 20:47 53.86847 -1.65619 664 ft 3 kts 359°
2026-05-04 20:47 53.86867 -1.65619 664 ft 2 kts
2026-05-04 20:47 53.86878 -1.65619 664 ft 0 kts